Home   Weather   Cap-Haïtien   Past weeks

Flag for Haiti Past Weather in Cap-Haïtien, Haiti — Yesterday and Last 2 Weeks

Now
73 °F

Passing clouds.


Feels Like: 68 °F
Forecast: 76 / 82 °F
Wind: No wind

Location: Santiago

Current Time: Dec 3, 2016 at 2:00:21 am

Latest Report: Dec 3, 2016 at 1:00 am


Visibility: N/A

Pressure: 29.95 "Hg

Humidity: 100%

Dew Point: 73 °F

Location of Cap-HaïtienLocation

Past Weather in Cap-Haïtien — Graph

°F

Cap-Haïtien Temperature Yesterday

Maximum temperature yesterday: 86 °F (at 12:00 pm)
Minimum temperature yesterday: 72 °F (at 6:00 am)
Average temperature yesterday: 78 °F

High & Low Weather Summary for the Past Weeks

 TemperatureHumidityPressure
High86 °F (Nov 26, 3:00 pm)100% (Nov 18, 8:00 am)30.04 "Hg (Nov 18, 8:00 am)
Low64 °F (Nov 22, 2:00 am)58% (Nov 21, 12:00 pm)29.77 "Hg (Nov 27, 2:00 pm)
Average75 °F91%29.92 "Hg
* Reported Nov 18 1:00 am — Dec 3 1:00 am, Cap-Haïtien, Weather by CustomWeather, © 2016

Note: Actual official high and low records may vary slightly from our data, if they occured in-between our weather recording intervals... More about our weather records

Advertising

Cap-Haïtien Weather History for the Previous 24 Hours

Scroll right to see more
 ConditionsComfort  
Time TempWeatherWind HumidityBarometerVisibility
1:00 am
Sat, Dec 3
73 °FPassing clouds.No wind100%29.95 "HgN/A
12:00 am73 °FPassing clouds.6 mph100%29.95 "HgN/A
11:00 pm
Fri, Dec 2
73 °FPassing clouds.No wind100%29.98 "HgN/A
10:00 pm75 °FPassing clouds.No wind94%29.98 "HgN/A
9:00 pm75 °FPassing clouds.5 mph94%29.98 "HgN/A
8:00 pm75 °FPassing clouds.7 mph94%29.98 "HgN/A
7:00 pm75 °FPassing clouds.7 mph94%N/AN/A
6:00 pm77 °FPassing clouds.12 mph94%29.95 "HgN/A
5:00 pm77 °FScattered showers. Partly sunny.14 mph94%29.95 "Hg5 mi
4:00 pm84 °FScattered clouds.17 mph70%29.92 "HgN/A
3:00 pm86 °FScattered clouds.16 mph70%29.89 "HgN/A
2:00 pm86 °FScattered clouds.14 mph70%29.92 "HgN/A
1:00 pm86 °FScattered clouds.12 mph66%29.95 "HgN/A
12:00 pm86 °FScattered clouds.15 mph75%29.95 "HgN/A
11:00 am84 °FPassing clouds.14 mph79%29.98 "HgN/A
10:00 am81 °FScattered clouds.8 mph84%30.01 "HgN/A
9:00 am79 °FScattered clouds.7 mph89%30.01 "HgN/A
8:00 am75 °FFog.3 mph94%30.01 "Hg2 mi
7:00 am72 °FFog.No wind100%29.98 "Hg1 mi
6:00 am72 °FFog.No wind100%29.95 "Hg3 mi
5:00 am73 °FPassing clouds.3 mph100%29.95 "HgN/A
4:00 am73 °FPassing clouds.3 mph100%29.92 "HgN/A
3:00 am73 °FPassing clouds.No wind100%29.92 "HgN/A
2:00 am73 °FPassing clouds.5 mph100%29.92 "HgN/A
Weather by CustomWeather, © 2016

See weather overviewHow to use our weather pages